Regional Weather Roundup
Issued by NWS

Home | Current Version | Previous Version | Graphics & Text | Print | Product List | Glossary On
Versions: 1 2 3 4 5 6 7 8 9 10 11 12 13 14 15 16 17 18 19 20 21 22 23 24 25 26 27 28 29 30 31 32 33 34 35 36 37 38 39 40 41 42 43 44 45 46 47 48 49 50
000
ASUS43 KIND 201559
RWRIN

WEATHER ROUNDUP FOR INDIANA
NATIONAL WEATHER SERVICE INDIANAPOLIS IN
1200 PM EDT FRI APR 20 2018

NOTE: "FAIR" INDICATES FEW OR NO CLOUDS BELOW 12,000 FEET WITH NO
SIGNIFICANT WEATHER AND/OR OBSTRUCTIONS TO VISIBILITY.

* - STATION DOES NOT REPORT WEATHER SUCH AS PRECIPITATION OR FOG.

+ - STATION NOT QUALITY CONTROLLED BY THE NATIONAL WEATHER SERVICE.
    USE DATA WITH CAUTION...ESPECIALLY DEWPOINT AND RELATIVE
    HUMIDITY OBSERVATIONS.

INZ001>003-010>013-019-020-201700-
NORTHWEST INDIANA

CITY           SKY/WX    TMP DP  RH WIND       PRES   REMARKS
GARY /AIRPORT/ SUNNY     52  27  37 VRB5      30.53S
KNOX *+        FAIR      52  21  30 CALM      30.52R
MONTICELLO +   FAIR      51  19  28 E3        30.52R
RENSSELAER +   FAIR      52   0  11 N5        30.53S

$$

LMZ046-743>745-201700-
SOUTHERN LAKE MICHIGAN

STATION/POSITION TIME  TEMP    WIND        PRES    WAVE
                       AIR SEA DIR/SP/G            HT
                 (UTC) (F)     (DEG/KT/KT) (MB)    (FT)
BURNS HARBOR     1540   40     330/  4/  6 1034.5R
MICHIGAN CITY    1530   41     310/  5/  6   N/A

$$

INZ004-005-014>016-021>024-201700-
NORTH CENTRAL INDIANA

CITY           SKY/WX    TMP DP  RH WIND       PRES   REMARKS
ELKHART        SUNNY     54  16  22 CALM      30.50S
GOSHEN         FAIR      50  20  30 CALM      30.50S
SOUTH BEND     FAIR      51  14  22 CALM      30.52S
WARSAW +       FAIR      48  19  32 N6        30.50S

$$

INZ006>009-017-018-025>027-201700-
NORTHEAST INDIANA

CITY           SKY/WX    TMP DP  RH WIND       PRES   REMARKS
ANGOLA *+      FAIR      50  16  25 VRB6G13   30.49R
FORT WAYNE     FAIR      51  22  31 N7        30.51R
KENDALLVILLE + FAIR      50   8  18 NE9       30.49S

$$

INZ028-029-035-036-043>045-051>053-201700-
WEST CENTRAL INDIANA

CITY           SKY/WX    TMP DP  RH WIND       PRES   REMARKS
GREENCASTLE +  FAIR      50  21  32 NE9       30.51S
LAFAYETTE      FAIR      51  21  30 E5        30.52S
TERRE HAUTE    FAIR      55  22  27 E15       30.50F

$$

INZ030>032-037>040-046>048-054>057-064-065-201700-
CENTRAL INDIANA

CITY           SKY/WX    TMP DP  RH WIND       PRES   REMARKS
COLUMBUS       SUNNY     48 N/A N/A CALM      30.51S
INDIANAPOLIS   FAIR      52  19  27 NE12      30.51R
-EAGLE CREEK   FAIR      51  19  28 E9        30.50R
KOKOMO +       FAIR      50  22  33 NE7       30.52R
MT COMFORT *+  FAIR      50  28  43 NE6       30.51R
SHELBYVILLE    FAIR      52  23  32 VRB3      30.50S
ZIONSVILLE +   FAIR      49  23  36 NE5       30.51S

$$

INZ033-034-041-042-049-050-058-059-201700-
EAST CENTRAL INDIANA

CITY           SKY/WX    TMP DP  RH WIND       PRES   REMARKS
MUNCIE         FAIR      52  20  28 NE5       30.49F
RICHMOND +     FAIR      46  27  46 NE6       30.49S

$$

INZ060-061-067>069-081>083-085>088-201700-
SOUTHWEST INDIANA

CITY           SKY/WX    TMP DP  RH WIND       PRES   REMARKS
EVANSVILLE     FAIR      54  25  32 E10       30.49S
HUNTINGBURG +  FAIR      53  26  35 NE13      30.49S

$$

INZ062-063-066-070>080-084-089>092-201700-
SOUTH CENTRAL AND SOUTHEAST INDIANA

CITY           SKY/WX    TMP DP  RH WIND       PRES   REMARKS
BLOOMINGTON    FAIR      54  16  22 E14G20    30.49S
FRENCH LICK *+ FAIR      50  12  22 CALM      30.49R
SEYMOUR +      FAIR      52  28  40 NE5       30.49F

$$





USA.gov is the U.S. government's official web portal to all federal, state and local government web resources and services.